User: anonymous
Location: Oshawa
(43.9000°N, 78.8670°W)
Time: 07:34:19
(UTC-04:00)
Language:

CARTOSAT-1 - Orbit

View from above orbital plane
View from above orbital plane
View from above satellite
View from above satellite

Ground track
Ground track

The orbit data is extracted from the following two-line orbital elements,

1 28649U 05017A   14245.15961304  .00000845  00000-0  10919-3 0  5555
2 28649 097.8290 317.6584 0002913 081.8011 278.3452 14.83485895504908
Epoch (UTC): 02 September 2014 03:49:50
Eccentricity: 0.0002913
inclination: 97.8290°
perigee height: 616 km
apogee height: 620 km
right ascension of ascending node: 317.6584°
argument of perigee: 81.8011°
revolutions per day: 14.83485895
mean anomaly at epoch: 278.3452°
orbit number at epoch: 50490

The dashed part of the orbit path shows where the satellite is in the earth's shadow,  

DLR